TimePST,TemperatureF,Dew PointF,Humidity,Sea Level PressureIn,VisibilityMPH,Wind Direction,Wind SpeedMPH,Gust SpeedMPH,PrecipitationIn,Events,Conditions,WindDirDegrees,DateUTC
12:00 AM,44.6,29.7,56,29.91,-9999.0,North,9.2,-,N/A,,Unknown,0,2013-03-05 08:00:00
2:00 AM,44.6,29.1,55,29.89,-9999.0,North,8.1,-,N/A,,Unknown,0,2013-03-05 10:00:00
3:00 AM,44.2,29.5,56,29.85,-9999.0,North,9.2,-,N/A,,Unknown,0,2013-03-05 11:00:00
4:00 AM,45,29,41,29.83,,Calm,Calm,,,,,80,2013-03-05 12:00:00
5:00 AM,44.8,28.6,53,29.81,-9999.0,North,10.4,-,N/A,,Unknown,0,2013-03-05 13:00:00
6:00 AM,44.8,28.9,54,29.81,-9999.0,North,10.4,-,N/A,,Unknown,0,2013-03-05 14:00:00
7:00 AM,45.0,28.8,53,29.81,-9999.0,North,10.4,-,N/A,,Unknown,0,2013-03-05 15:00:00
8:00 AM,45.3,28.6,52,29.81,-9999.0,North,10.4,-,N/A,,Unknown,0,2013-03-05 16:00:00
9:00 AM,45.9,30.2,54,29.81,-9999.0,North,8.1,-,N/A,,Unknown,0,2013-03-05 17:00:00
10:00 AM,46,31,44,29.83,,Calm,Calm,,,,,100,2013-03-05 18:00:00
10:00 AM,46.4,31.3,56,29.83,-9999.0,North,11.5,-,N/A,,Unknown,0,2013-03-05 18:00:00
11:00 AM,45.7,33.4,62,29.82,-9999.0,North,10.4,-,N/A,,Unknown,0,2013-03-05 19:00:00
12:00 PM,45.7,35.8,68,29.82,-9999.0,North,1.2,-,N/A,,Unknown,0,2013-03-05 20:00:00
1:00 PM,46.4,35.1,65,29.81,-9999.0,North,10.4,-,N/A,,Unknown,0,2013-03-05 21:00:00
2:00 PM,46.4,35.2,65,29.80,-9999.0,North,6.9,-,N/A,,Unknown,0,2013-03-05 22:00:00
3:00 PM,45.1,38.1,76,29.80,-9999.0,North,36.8,-,N/A,,Unknown,0,2013-03-05 23:00:00
4:00 PM,44,38,73,29.80,,Calm,Calm,,,,,40,2013-03-06 00:00:00
4:00 PM,43.5,38.1,81,29.80,-9999.0,North,4.6,-,0.02,,Unknown,0,2013-03-06 00:00:00
5:00 PM,42.4,37.9,84,29.80,-9999.0,North,9.2,-,0.02,,Unknown,0,2013-03-06 01:00:00
6:00 PM,41.9,37.8,85,29.79,-9999.0,North,4.6,-,0.02,,Unknown,0,2013-03-06 02:00:00
7:00 PM,41.9,38.3,87,29.79,-9999.0,North,29.9,-,N/A,,Unknown,0,2013-03-06 03:00:00
8:00 PM,41.0,38.1,89,29.78,-9999.0,North,39.1,-,N/A,,Unknown,0,2013-03-06 04:00:00
9:00 PM,41.4,38.1,88,29.78,-9999.0,North,11.5,-,N/A,,Unknown,0,2013-03-06 05:00:00
10:00 PM,42,36,74,29.75,,ENE,3.5,,,,,70,2013-03-06 06:00:00
10:00 PM,41.9,36.5,81,29.75,-9999.0,ENE,3.5,-,N/A,,Unknown,70,2013-03-06 06:00:00
11:00 PM,42.1,36.1,79,29.74,-9999.0,ENE,5.8,-,N/A,,Unknown,70,2013-03-06 07:00:00